Location: Newark
(44.3248°N, 23.7839°E)
Time: 05:53:00
(UTC+00:00)

FO-29 - Pass Details

Date: 24 April 2024
Orbit: 801 x 1320 km, 98.6° (Epoch: 28 May)

Event Time Altitude Azimuth Distance (km) Brightness Sun altitude
Rises 23:28:52 0° 19° (NNE) 4,212 14.0 -30.5°
Reaches altitude 10° 23:31:43 10° 26° (NNE) 3,286 13.1 -30.3°
Maximum altitude 23:38:58 42° 96° (E) 1,800 10.9 -29.8°
Enters shadow 23:41:29 34° 135° (SE) 2,046 10.9 -29.7°
